Total_Precipitation_Accumulation
0.06 0.06 0.13 0.12 0.09 0.12 0.15 0.16 0.16 0.14 0.11 0.12 0.13 0.10 0.07 0.05 0.05 0.05 0.05 0.06 0.09 0.14 0.18 0.22 0.26 0.26 0.27 0.28 0.26 0.26 0.26 0.27 0.33 0.36 0.38 0.40 0.49 0.63 0.79 0.79 0.87 0.55 0.48
0.02 0.03 0.11 0.10 0.09 0.10 0.12 0.14 0.15 0.14 0.12 0.10 0.10 0.08 0.07 0.06 0.06 0.06 0.08 0.11 0.12 0.15 0.18 0.21 0.21 0.21 0.21 0.18 0.18 0.19 0.22 0.29 0.39 0.44 0.48 0.45 0.53 0.66 0.75 0.74 0.86 0.50 0.41
0.04 0.03 0.06 0.10 0.08 0.10 0.12 0.13 0.15 0.14 0.14 0.13 0.11 0.09 0.08 0.09 0.09 0.09 0.10 0.12 0.14 0.16 0.17 0.18 0.17 0.16 0.14 0.14 0.14 0.18 0.26 0.36 0.55 0.73 0.92 0.58 0.38 0.63 0.70 0.62 0.50 0.33 0.34
0.05 0.03 0.03 0.08 0.08 0.08 0.10 0.12 0.15 0.14 0.16 0.16 0.14 0.12 0.11 0.12 0.13 0.15 0.15 0.14 0.15 0.17 0.16 0.15 0.14 0.12 0.12 0.12 0.15 0.21 0.29 0.40 0.69 1.04 1.23 0.54 0.24 0.37 0.45 0.37 0.31 0.29 0.30
0.05 0.04 0.04 0.06 0.07 0.07 0.09 0.11 0.13 0.14 0.15 0.17 0.15 0.13 0.14 0.16 0.18 0.20 0.19 0.17 0.18 0.17 0.16 0.16 0.14 0.14 0.13 0.14 0.18 0.24 0.30 0.42 0.67 0.96 0.83 0.62 0.53 0.35 0.30 0.29 0.33 0.32 0.32
0.07 0.05 0.06 0.07 0.07 0.08 0.09 0.10 0.12 0.15 0.17 0.17 0.14 0.14 0.15 0.18 0.20 0.20 0.19 0.19 0.19 0.16 0.15 0.14 0.13 0.14 0.15 0.16 0.22 0.27 0.38 0.55 0.71 0.56 0.47 0.58 0.53 0.37 0.31 0.37 0.40 0.33 0.34
0.10 0.10 0.10 0.11 0.10 0.10 0.10 0.11 0.13 0.14 0.15 0.16 0.14 0.15 0.16 0.19 0.20 0.19 0.18 0.19 0.18 0.15 0.16 0.17 0.17 0.15 0.17 0.19 0.25 0.32 0.45 0.62 0.67 0.45 0.45 0.67 0.55 0.32 0.36 0.49 0.59 0.47 0.35
0.15 0.17 0.19 0.18 0.17 0.15 0.14 0.13 0.14 0.16 0.17 0.18 0.19 0.18 0.18 0.21 0.21 0.20 0.20 0.20 0.19 0.17 0.16 0.18 0.20 0.19 0.19 0.21 0.28 0.34 0.40 0.45 0.47 0.43 0.42 0.54 0.39 0.30 0.37 0.55 0.69 0.66 0.57
0.38 0.47 0.39 0.26 0.22 0.23 0.22 0.21 0.20 0.21 0.23 0.23 0.22 0.21 0.22 0.22 0.23 0.24 0.25 0.26 0.25 0.23 0.24 0.21 0.19 0.22 0.24 0.25 0.29 0.33 0.38 0.45 0.55 0.58 0.48 0.51 0.35 0.35 0.43 0.53 0.64 0.72 0.73
0.55 0.57 0.52 0.38 0.33 0.26 0.22 0.24 0.26 0.27 0.29 0.27 0.25 0.25 0.25 0.24 0.26 0.30 0.31 0.38 0.38 0.40 0.42 0.38 0.30 0.29 0.34 0.36 0.34 0.38 0.43 0.46 0.54 0.59 0.69 0.56 0.43 0.48 0.56 0.58 0.63 0.75 0.82
0.98 0.86 0.73 0.48 0.38 0.35 0.30 0.28 0.34 0.35 0.34 0.34 0.37 0.35 0.40 0.49 0.55 0.69 0.62 0.72 0.68 0.70 0.69 0.68 0.61 0.59 0.63 0.52 0.52 0.60 0.61 0.56 0.75 0.83 0.76 0.56 0.57 0.76 0.86 0.74 0.71 0.75 0.80
1.50 1.31 1.06 0.76 0.60 0.53 0.44 0.45 0.51 0.51 0.60 0.61 0.75 0.81 0.98 1.18 1.15 0.90 1.01 1.23 1.27 1.27 1.20 1.20 1.31 1.18 1.01 0.87 1.17 1.38 0.84 0.71 0.88 0.84 0.78 0.86 1.01 1.24 1.38 1.15 0.96 0.86 0.81
1.68 1.51 1.37 1.15 0.92 0.73 0.72 0.70 0.76 0.89 1.17 1.07 1.01 1.14 1.46 1.36 1.13 1.01 1.16 1.45 1.72 1.72 1.65 1.76 1.90 1.55 1.62 1.79 1.91 1.93 1.29 1.05 1.16 1.10 0.90 1.11 1.36 1.66 1.87 1.68 1.34 1.15 1.02
2.24 2.00 1.77 1.62 1.38 1.29 1.18 1.04 0.95 1.01 1.14 1.13 1.25 1.19 1.50 1.60 1.46 1.41 1.54 1.64 1.85 2.08 2.42 2.33 2.45 2.33 2.25 2.11 2.14 2.11 1.83 1.72 1.60 1.64 1.61 1.57 1.67 1.89 2.16 2.17 1.88 1.56 1.33
2.67 2.44 2.29 2.14 2.04 1.98 1.78 1.55 1.23 1.29 1.25 1.28 1.47 1.47 1.59 1.84 1.91 1.98 1.95 1.87 1.79 2.14 2.56 2.77 2.50 2.78 2.80 2.40 2.09 1.98 1.93 1.91 2.07 2.27 2.16 2.32 2.24 2.20 2.40 2.46 2.28 2.03 1.84
2.83 2.93 3.00 2.87 2.75 2.71 2.47 2.25 1.98 1.79 1.83 1.79 1.81 1.93 2.07 2.26 2.40 2.44 2.29 2.20 1.99 2.02 2.32 2.55 2.56 2.78 2.66 2.51 1.94 1.86 1.81 1.92 2.09 2.13 2.15 2.60 2.55 2.33 2.33 2.45 2.48 2.33 2.17
2.99 3.41 3.65 3.70 3.61 3.55 3.38 3.04 2.64 2.43 2.44 2.56 2.60 2.64 2.58 2.66 2.87 2.73 2.48 2.18 2.08 2.14 2.27 2.28 2.31 2.40 2.26 2.18 1.96 2.03 1.99 1.88 1.78 1.81 1.95 2.18 2.12 1.95 1.94 2.04 2.25 2.43 2.58
3.27 3.82 4.12 4.27 4.45 4.32 4.21 3.83 3.34 3.04 2.93 2.89 2.95 2.94 2.85 2.86 2.74 2.66 2.33 1.99 2.04 2.15 2.15 2.13 2.03 2.12 2.14 2.20 2.17 2.03 2.11 1.97 1.61 1.57 1.64 1.61 1.69 1.56 1.69 1.79 1.90 2.11 2.57
3.55 4.23 4.62 5.07 5.31 5.16 4.77 4.21 3.75 3.63 3.46 3.23 3.18 3.06 2.89 2.67 2.48 2.55 2.25 2.09 2.02 2.01 1.92 1.80 2.00 2.14 2.14 2.17 2.04 1.92 1.74 1.58 1.33 1.19 1.17 1.07 1.18 1.37 1.51 1.59 1.65 1.76 2.25
3.65 4.40 5.00 5.49 5.65 5.34 4.75 4.28 4.09 3.94 3.58 3.28 2.94 2.67 2.40 2.27 2.11 2.21 1.99 1.90 1.98 2.00 1.84 1.87 2.04 2.08 1.90 1.96 1.83 1.64 1.47 1.24 1.12 1.01 0.87 0.86 0.81 0.79 0.99 1.33 1.62 1.41 1.75
3.88 4.58 5.13 5.47 5.41 5.15 4.76 4.33 4.01 3.52 3.16 2.83 2.46 2.23 2.02 1.80 1.71 1.90 1.70 1.79 1.80 1.75 1.62 1.58 1.67 1.68 1.50 1.74 1.93 1.52 1.17 1.01 0.91 0.79 0.77 0.81 0.74 0.80 0.99 1.24 1.42 1.52 1.43
3.65 4.13 4.50 4.43 4.10 3.94 3.86 3.70 3.40 3.34 3.18 2.91 2.66 2.43 2.05 1.83 1.68 1.54 1.58 1.50 1.51 1.59 1.44 1.35 1.48 1.48 1.27 1.48 1.60 1.53 1.17 1.02 0.87 0.63 0.66 0.66 0.71 0.87 0.90 0.97 1.20 1.37 1.30
3.04 3.32 3.36 3.21 2.97 2.96 2.99 2.88 2.90 3.06 3.09 2.98 2.77 2.48 2.18 1.99 1.85 1.71 1.57 1.41 1.36 1.31 1.30 1.27 1.34 1.37 1.27 1.22 1.27 1.43 1.21 0.96 0.80 0.59 0.53 0.58 0.76 0.93 0.89 0.97 1.02 1.18 1.21
2.23 2.38 2.41 2.41 2.32 2.30 2.33 2.22 2.07 2.12 2.26 2.41 2.59 2.57 2.52 2.35 2.10 1.86 1.69 1.45 1.23 1.13 1.23 1.05 1.10 1.28 1.33 1.14 1.07 1.08 1.09 1.19 1.13 0.83 0.56 0.50 0.70 0.80 0.83 0.81 0.89 1.10 1.20
1.52 1.66 1.71 1.92 2.15 2.20 2.17 2.24 2.08 1.79 1.71 1.70 1.79 1.92 1.98 2.01 1.88 1.63 1.49 1.38 1.16 1.03 1.04 1.03 1.15 1.17 1.17 1.07 1.05 1.02 1.09 1.22 1.19 1.11 0.84 0.72 0.72 0.65 0.63 0.68 0.82 0.99 1.12
1.14 1.29 1.48 1.75 2.07 2.20 2.20 2.11 2.02 1.85 1.78 1.67 1.61 1.59 1.51 1.56 1.53 1.41 1.29 1.24 1.11 1.04 1.04 1.00 1.05 1.11 1.16 1.19 1.18 1.18 1.21 1.20 1.24 1.36 1.18 1.00 0.91 0.75 0.70 0.80 0.93 1.10 1.23